TimePST,TemperatureF,Dew PointF,Humidity,Sea Level PressureIn,VisibilityMPH,Wind Direction,Wind SpeedMPH,Gust SpeedMPH,PrecipitationIn,Events,Conditions,WindDirDegrees,DateUTC
12:15 AM,46.4,39.2,76,30.38,10.0,Calm,Calm,-,N/A,,Clear,0,2012-11-12 08:15:00
12:35 AM,46.4,39.2,76,30.39,10.0,Calm,Calm,-,N/A,,Clear,0,2012-11-12 08:35:00
12:55 AM,44.6,39.2,81,30.38,10.0,WNW,3.5,-,N/A,,Clear,290,2012-11-12 08:55:00
1:15 AM,46.4,39.2,76,30.38,10.0,Calm,Calm,-,N/A,,Clear,0,2012-11-12 09:15:00
1:35 AM,44.6,39.2,81,30.38,10.0,Calm,Calm,-,N/A,,Clear,0,2012-11-12 09:35:00
1:55 AM,44.6,39.2,81,30.38,10.0,Calm,Calm,-,N/A,,Clear,0,2012-11-12 09:55:00
2:15 AM,44.6,39.2,81,30.38,10.0,Calm,Calm,-,N/A,,Clear,0,2012-11-12 10:15:00
2:35 AM,44.6,39.2,81,30.38,10.0,Calm,Calm,-,N/A,,Clear,0,2012-11-12 10:35:00
2:55 AM,44.6,39.2,81,30.38,10.0,Calm,Calm,-,N/A,,Clear,0,2012-11-12 10:55:00
3:15 AM,44.6,39.2,81,30.38,10.0,Calm,Calm,-,N/A,,Clear,0,2012-11-12 11:15:00
3:35 AM,44.6,39.2,81,30.38,10.0,Calm,Calm,-,N/A,,Clear,0,2012-11-12 11:35:00
3:55 AM,44.6,39.2,81,30.38,10.0,Calm,Calm,-,N/A,,Clear,0,2012-11-12 11:55:00
4:15 AM,44.6,39.2,81,30.38,10.0,Calm,Calm,-,N/A,,Clear,0,2012-11-12 12:15:00
4:35 AM,41.0,39.2,93,30.38,10.0,Calm,Calm,-,N/A,,Clear,0,2012-11-12 12:35:00
4:55 AM,42.8,39.2,87,30.37,10.0,Calm,Calm,-,N/A,,Clear,0,2012-11-12 12:55:00
5:15 AM,42.8,39.2,87,30.37,10.0,Calm,Calm,-,N/A,,Clear,0,2012-11-12 13:15:00
5:35 AM,42.8,39.2,87,30.38,10.0,Calm,Calm,-,N/A,,Clear,0,2012-11-12 13:35:00
5:55 AM,42.8,39.2,87,30.38,10.0,Calm,Calm,-,N/A,,Clear,0,2012-11-12 13:55:00
6:15 AM,42.8,39.2,87,30.38,10.0,Calm,Calm,-,N/A,,Clear,0,2012-11-12 14:15:00
6:35 AM,41.0,37.4,87,30.38,10.0,Calm,Calm,-,N/A,,Clear,0,2012-11-12 14:35:00
6:47 AM,42.8,39.2,87,30.38,10.0,Calm,Calm,-,N/A,,Scattered Clouds,0,2012-11-12 14:47:00
6:55 AM,42.8,39.2,87,30.38,10.0,Calm,Calm,-,N/A,,Clear,0,2012-11-12 14:55:00
7:50 AM,46.4,39.2,76,30.39,10.0,Calm,Calm,-,N/A,,Partly Cloudy,0,2012-11-12 15:50:00
8:47 AM,50.0,39.2,66,30.39,10.0,Calm,Calm,-,N/A,,Clear,0,2012-11-12 16:47:00
9:50 AM,53.6,37.4,54,30.38,10.0,Calm,Calm,-,N/A,,Clear,0,2012-11-12 17:50:00
10:47 AM,55.4,37.4,51,30.38,10.0,Calm,Calm,-,N/A,,Clear,0,2012-11-12 18:47:00
11:48 AM,57.2,37.4,48,30.36,10.0,North,4.6,-,N/A,,Clear,360,2012-11-12 19:48:00
12:47 PM,59.0,37.4,45,30.33,10.0,North,3.5,-,N/A,,Clear,350,2012-11-12 20:47:00
1:47 PM,59.0,37.4,45,30.30,10.0,NNW,5.8,-,N/A,,Clear,340,2012-11-12 21:47:00
2:47 PM,60.8,37.4,42,30.29,10.0,WNW,6.9,-,N/A,,Clear,300,2012-11-12 22:47:00
3:47 PM,60.8,37.4,42,30.28,10.0,NNW,5.8,-,N/A,,Clear,340,2012-11-12 23:47:00
4:55 PM,59.0,37.4,45,30.26,10.0,NW,17.3,-,N/A,,Partly Cloudy,310,2012-11-13 00:55:00
5:47 PM,57.2,41.0,55,30.26,10.0,NW,4.6,-,N/A,,Partly Cloudy,310,2012-11-13 01:47:00
6:50 PM,55.4,39.2,54,30.28,10.0,WNW,5.8,-,N/A,,Clear,300,2012-11-13 02:50:00
7:50 PM,53.6,39.2,58,30.29,10.0,West,3.5,-,N/A,,Clear,280,2012-11-13 03:50:00
8:47 PM,51.8,39.2,62,30.30,10.0,Calm,Calm,-,N/A,,Clear,0,2012-11-13 04:47:00
9:15 PM,50.0,39.2,66,30.30,10.0,SW,3.5,-,N/A,,Clear,220,2012-11-13 05:15:00
9:35 PM,50.0,39.2,66,30.30,10.0,Calm,Calm,-,N/A,,Clear,0,2012-11-13 05:35:00
9:55 PM,50.0,39.2,66,30.30,10.0,Calm,Calm,-,N/A,,Clear,0,2012-11-13 05:55:00
10:15 PM,48.2,39.2,71,30.30,10.0,Calm,Calm,-,N/A,,Clear,0,2012-11-13 06:15:00
10:35 PM,48.2,39.2,71,30.30,10.0,Calm,Calm,-,N/A,,Clear,0,2012-11-13 06:35:00
10:55 PM,48.2,39.2,71,30.29,10.0,Calm,Calm,-,N/A,,Clear,0,2012-11-13 06:55:00
11:15 PM,48.2,39.2,71,30.29,10.0,Calm,Calm,-,N/A,,Clear,0,2012-11-13 07:15:00
11:35 PM,48.2,39.2,71,30.29,10.0,Calm,Calm,-,N/A,,Clear,0,2012-11-13 07:35:00
11:55 PM,48.2,39.2,71,30.29,10.0,Calm,Calm,-,N/A,,Clear,0,2012-11-13 07:55:00